WGS F5 (USA 243)

Last updated on Thu Sep 10 2026 00:02:57 GMT+0000 (Coordinated Universal Time)

1 39168U 13024A 26252.21879200 .00000000 00000+0 00000+0 0 9991 2 39168 0.0261 153.9282 0000598 67.4811 153.1274 1.00268505 48010
UTC large
Height (km)
Speed (km/s)
/
Latitude / Longitude
Inclination (degrees)
Orbital Period (minutes)
Azimuth
Elevation
Range (km)
Doppler Factor

Next 0 passes for location: London (51.5072 / 0.1276)

No passes found over London.
WGS F5 (USA 243)